Time,TemperatureF,DewpointF,PressureIn,WindDirection,WindDirectionDegrees,WindSpeedMPH,WindSpeedGustMPH,Humidity,HourlyPrecipIn,Conditions,Clouds,dailyrainin,SolarRadiationWatts/m^2,SoftwareType,DateUTC
2013-03-26 00:00:00,37.1,26.8,29.59,North,355,3.0,11.0,66,0.00,,,0.00,0.00,VWS V14.00,2013-03-26 04:00:00,
2013-03-26 00:05:00,37.0,26.7,29.59,North,5,6.0,9.0,66,0.00,,,0.00,0.00,VWS V14.00,2013-03-26 04:05:00,
2013-03-26 00:10:00,36.9,26.6,29.59,North,11,11.0,12.0,66,0.00,,,0.00,0.00,VWS V14.00,2013-03-26 04:10:00,
2013-03-26 00:15:00,36.8,26.5,29.60,NNW,343,8.0,15.0,66,0.00,,,0.00,0.00,VWS V14.00,2013-03-26 04:15:00,
2013-03-26 00:20:00,36.6,26.7,29.60,NNE,25,4.0,12.0,67,0.00,,,0.00,0.00,VWS V14.00,2013-03-26 04:20:00,
2013-03-26 00:26:00,36.6,26.7,29.60,NNW,344,7.0,12.0,67,0.00,,,0.00,0.00,VWS V14.00,2013-03-26 04:26:00,
2013-03-26 00:31:00,36.4,26.5,29.60,North,5,8.0,8.0,67,0.00,,,0.00,0.00,VWS V14.00,2013-03-26 04:31:00,
2013-03-26 00:36:00,36.3,26.8,29.60,North,355,7.0,7.0,68,0.00,,,0.00,0.00,VWS V14.00,2013-03-26 04:36:00,
2013-03-26 00:41:00,36.2,26.7,29.60,North,360,6.0,6.0,68,0.00,,,0.00,0.00,VWS V14.00,2013-03-26 04:41:00,
2013-03-26 00:46:00,36.0,26.8,29.60,North,5,9.0,9.0,69,0.00,,,0.00,0.00,VWS V14.00,2013-03-26 04:46:00,
2013-03-26 00:51:00,35.9,26.7,29.60,NNE,12,4.0,7.0,69,0.00,,,0.00,0.00,VWS V14.00,2013-03-26 04:51:00,
2013-03-26 00:56:00,35.7,26.5,29.60,NNW,342,6.0,12.0,69,0.00,,,0.00,0.00,VWS V14.00,2013-03-26 04:56:00,
2013-03-26 01:01:00,35.6,26.5,29.60,North,355,5.0,5.0,69,0.00,,,0.00,0.00,VWS V14.00,2013-03-26 05:01:00,
2013-03-26 01:06:00,35.5,26.7,29.60,NNE,22,8.0,10.0,70,0.00,,,0.00,0.00,VWS V14.00,2013-03-26 05:06:00,
2013-03-26 01:11:00,35.3,26.5,29.60,North,349,5.0,6.0,70,0.00,,,0.00,0.00,VWS V14.00,2013-03-26 05:11:00,
2013-03-26 01:16:00,35.3,26.5,29.60,North,360,9.0,11.0,70,0.00,,,0.00,0.00,VWS V14.00,2013-03-26 05:16:00,
2013-03-26 01:21:00,35.2,26.4,29.60,North,360,13.0,13.0,70,0.00,,,0.00,0.00,VWS V14.00,2013-03-26 05:21:00,
2013-03-26 01:27:00,35.1,26.3,29.60,NW,326,5.0,6.0,70,0.00,,,0.00,0.00,VWS V14.00,2013-03-26 05:27:00,
2013-03-26 01:32:00,35.0,26.2,29.60,North,360,6.0,10.0,70,0.00,,,0.00,0.00,VWS V14.00,2013-03-26 05:32:00,
2013-03-26 01:37:00,35.0,26.6,29.60,NE,49,10.0,10.0,71,0.00,,,0.00,0.00,VWS V14.00,2013-03-26 05:37:00,
2013-03-26 01:42:00,34.9,26.5,29.60,North,355,2.0,5.0,71,0.00,,,0.00,0.00,VWS V14.00,2013-03-26 05:42:00,
2013-03-26 01:47:00,34.9,26.5,29.61,NNW,341,4.0,4.0,71,0.00,,,0.00,0.00,VWS V14.00,2013-03-26 05:47:00,
2013-03-26 01:52:00,34.8,26.4,29.61,North,355,2.0,4.0,71,0.00,,,0.00,0.00,VWS V14.00,2013-03-26 05:52:00,
2013-03-26 01:57:00,34.8,26.4,29.61,NNW,342,3.0,10.0,71,0.00,,,0.00,0.00,VWS V14.00,2013-03-26 05:57:00,
2013-03-26 02:02:00,34.7,26.3,29.61,NNE,22,5.0,6.0,71,0.00,,,0.00,0.00,VWS V14.00,2013-03-26 06:02:00,
2013-03-26 02:07:00,34.6,26.2,29.61,NNE,17,9.0,9.0,71,0.00,,,0.00,0.00,VWS V14.00,2013-03-26 06:07:00,
2013-03-26 02:12:00,34.4,26.0,29.61,NNE,24,8.0,14.0,71,0.00,,,0.00,0.00,VWS V14.00,2013-03-26 06:12:00,
2013-03-26 02:17:00,34.3,26.2,29.61,NNE,24,5.0,10.0,72,0.00,,,0.00,0.00,VWS V14.00,2013-03-26 06:17:00,
2013-03-26 02:22:00,34.2,26.1,29.61,NNE,26,9.0,11.0,72,0.00,,,0.00,0.00,VWS V14.00,2013-03-26 06:22:00,
2013-03-26 02:27:00,34.1,26.0,29.61,North,10,12.0,19.0,72,0.00,,,0.00,0.00,VWS V14.00,2013-03-26 06:27:00,
2013-03-26 02:32:00,33.9,25.8,29.61,NNE,29,8.0,13.0,72,0.00,,,0.00,0.00,VWS V14.00,2013-03-26 06:32:00,
2013-03-26 02:37:00,33.8,25.7,29.61,NNE,26,7.0,8.0,72,0.00,,,0.00,0.00,VWS V14.00,2013-03-26 06:37:00,
2013-03-26 02:42:00,33.7,25.6,29.61,NE,41,14.0,17.0,72,0.00,,,0.00,0.00,VWS V14.00,2013-03-26 06:42:00,
2013-03-26 02:47:00,33.7,25.6,29.61,North,5,8.0,14.0,72,0.00,,,0.00,0.00,VWS V14.00,2013-03-26 06:47:00,
2013-03-26 02:52:00,33.6,25.5,29.61,NNE,18,8.0,12.0,72,0.00,,,0.00,0.00,VWS V14.00,2013-03-26 06:52:00,
2013-03-26 02:57:00,33.5,25.5,29.61,NNE,24,10.0,14.0,72,0.00,,,0.00,0.00,VWS V14.00,2013-03-26 06:57:00,
2013-03-26 03:02:00,33.3,25.3,29.61,NNE,26,6.0,11.0,72,0.00,,,0.00,0.00,VWS V14.00,2013-03-26 07:02:00,
2013-03-26 03:07:00,33.2,25.2,29.61,NE,48,10.0,13.0,72,0.00,,,0.00,0.00,VWS V14.00,2013-03-26 07:07:00,
2013-03-26 03:12:00,33.0,25.3,29.61,North,5,3.0,12.0,73,0.00,,,0.00,0.00,VWS V14.00,2013-03-26 07:12:00,
2013-03-26 03:17:00,32.9,25.2,29.61,NE,49,7.0,15.0,73,0.00,,,0.00,0.00,VWS V14.00,2013-03-26 07:17:00,
2013-03-26 03:23:00,32.8,25.1,29.62,North,360,4.0,10.0,73,0.00,,,0.00,0.00,VWS V14.00,2013-03-26 07:23:00,
2013-03-26 03:28:00,32.8,25.1,29.62,NNW,346,3.0,7.0,73,0.00,,,0.00,0.00,VWS V14.00,2013-03-26 07:28:00,
2013-03-26 03:33:00,32.7,25.0,29.61,NW,325,5.0,7.0,73,0.00,,,0.00,0.00,VWS V14.00,2013-03-26 07:33:00,
2013-03-26 03:38:00,32.6,24.9,29.61,NNE,28,6.0,6.0,73,0.00,,,0.00,0.00,VWS V14.00,2013-03-26 07:38:00,
2013-03-26 03:43:00,32.6,24.9,29.61,NE,34,1.0,14.0,73,0.00,,,0.00,0.00,VWS V14.00,2013-03-26 07:43:00,
2013-03-26 03:48:00,32.6,24.9,29.61,North,355,8.0,10.0,73,0.00,,,0.00,0.00,VWS V14.00,2013-03-26 07:48:00,
2013-03-26 03:53:00,32.5,24.8,29.61,NNE,28,2.0,5.0,73,0.00,,,0.00,0.00,VWS V14.00,2013-03-26 07:53:00,
2013-03-26 03:58:00,32.5,24.8,29.61,North,10,4.0,10.0,73,0.00,,,0.00,0.00,VWS V14.00,2013-03-26 07:58:00,
2013-03-26 04:03:00,32.4,24.7,29.61,North,11,13.0,13.0,73,0.00,,,0.00,0.00,VWS V14.00,2013-03-26 08:03:00,
2013-03-26 04:08:00,32.4,24.7,29.61,NNE,19,6.0,7.0,73,0.00,,,0.00,0.00,VWS V14.00,2013-03-26 08:08:00,
2013-03-26 04:13:00,32.3,24.6,29.61,North,5,6.0,12.0,73,0.00,,,0.00,0.00,VWS V14.00,2013-03-26 08:13:00,
2013-03-26 04:18:00,32.3,24.6,29.62,North,5,2.0,12.0,73,0.00,,,0.00,0.00,VWS V14.00,2013-03-26 08:18:00,
2013-03-26 04:23:00,32.2,24.9,29.62,NNW,340,7.0,10.0,74,0.00,,,0.00,0.00,VWS V14.00,2013-03-26 08:23:00,
2013-03-26 04:28:00,32.0,24.7,29.62,NW,311,4.0,15.0,74,0.00,,,0.00,0.00,VWS V14.00,2013-03-26 08:28:00,
2013-03-26 04:33:00,31.9,24.6,29.62,North,11,3.0,10.0,74,0.00,,,0.00,0.00,VWS V14.00,2013-03-26 08:33:00,
2013-03-26 04:38:00,31.9,24.6,29.62,North,355,8.0,21.0,74,0.00,,,0.00,0.00,VWS V14.00,2013-03-26 08:38:00,
2013-03-26 04:43:00,31.9,24.6,29.62,NNW,333,9.0,14.0,74,0.00,,,0.00,0.00,VWS V14.00,2013-03-26 08:43:00,
2013-03-26 04:48:00,31.9,24.6,29.62,NNW,328,4.0,13.0,74,0.00,,,0.00,0.00,VWS V14.00,2013-03-26 08:48:00,
2013-03-26 04:53:00,31.9,24.6,29.62,North,350,5.0,14.0,74,0.00,,,0.00,0.00,VWS V14.00,2013-03-26 08:53:00,
2013-03-26 04:58:00,31.9,24.9,29.63,North,351,5.0,12.0,75,0.00,,,0.00,0.00,VWS V14.00,2013-03-26 08:58:00,
2013-03-26 05:03:00,31.9,24.9,29.62,North,5,7.0,10.0,75,0.00,,,0.00,0.00,VWS V14.00,2013-03-26 09:03:00,
2013-03-26 05:08:00,31.8,24.8,29.63,NNW,344,6.0,16.0,75,0.00,,,0.00,0.00,VWS V14.00,2013-03-26 09:08:00,
2013-03-26 05:13:00,31.8,24.8,29.64,NNW,333,5.0,9.0,75,0.00,,,0.00,0.00,VWS V14.00,2013-03-26 09:13:00,
2013-03-26 05:18:00,31.8,24.8,29.64,NNE,22,1.0,10.0,75,0.00,,,0.00,0.00,VWS V14.00,2013-03-26 09:18:00,
2013-03-26 05:24:00,31.7,24.7,29.64,NNE,14,9.0,14.0,75,0.00,,,0.00,0.00,VWS V14.00,2013-03-26 09:24:00,
2013-03-26 05:29:00,31.7,24.7,29.64,NNW,327,5.0,10.0,75,0.00,,,0.00,0.00,VWS V14.00,2013-03-26 09:29:00,
2013-03-26 05:34:00,31.7,24.7,29.64,North,355,4.0,12.0,75,0.00,,,0.00,0.00,VWS V14.00,2013-03-26 09:34:00,
2013-03-26 05:39:00,31.8,24.8,29.65,NNW,331,4.0,10.0,75,0.00,,,0.00,0.00,VWS V14.00,2013-03-26 09:39:00,
2013-03-26 05:44:00,31.7,24.7,29.64,NE,51,4.0,12.0,75,0.00,,,0.00,0.00,VWS V14.00,2013-03-26 09:44:00,
2013-03-26 05:49:00,31.7,24.7,29.65,NE,45,6.0,11.0,75,0.00,,,0.00,0.00,VWS V14.00,2013-03-26 09:49:00,
2013-03-26 05:54:00,31.7,24.7,29.65,NNE,23,11.0,14.0,75,0.00,,,0.00,0.00,VWS V14.00,2013-03-26 09:54:00,
2013-03-26 05:59:00,31.7,24.7,29.65,North,355,5.0,11.0,75,0.00,,,0.00,0.00,VWS V14.00,2013-03-26 09:59:00,
2013-03-26 06:04:00,31.7,24.7,29.65,North,5,7.0,11.0,75,0.00,,,0.00,0.00,VWS V14.00,2013-03-26 10:04:00,
2013-03-26 06:09:00,31.7,24.7,29.65,NNE,13,4.0,9.0,75,0.00,,,0.00,0.00,VWS V14.00,2013-03-26 10:09:00,
2013-03-26 06:14:00,31.7,24.7,29.65,North,5,2.0,11.0,75,0.00,,,0.00,0.00,VWS V14.00,2013-03-26 10:14:00,
2013-03-26 06:19:00,31.7,24.7,29.65,North,355,10.0,12.0,75,0.00,,,0.00,0.00,VWS V14.00,2013-03-26 10:19:00,
2013-03-26 06:24:00,31.7,24.7,29.66,NNW,346,4.0,13.0,75,0.00,,,0.00,0.00,VWS V14.00,2013-03-26 10:24:00,
2013-03-26 06:29:00,31.7,24.7,29.66,NNE,28,10.0,16.0,75,0.00,,,0.00,0.00,VWS V14.00,2013-03-26 10:29:00,
2013-03-26 06:34:00,31.7,24.7,29.66,NNW,344,9.0,18.0,75,0.00,,,0.00,0.00,VWS V14.00,2013-03-26 10:34:00,
2013-03-26 06:39:00,31.7,24.7,29.66,North,5,8.0,15.0,75,0.00,,,0.00,0.00,VWS V14.00,2013-03-26 10:39:00,
2013-03-26 06:44:00,31.7,24.7,29.67,NNE,31,8.0,13.0,75,0.00,,,0.00,0.00,VWS V14.00,2013-03-26 10:44:00,
2013-03-26 06:49:00,31.7,24.7,29.66,NNE,16,15.0,15.0,75,0.00,,,0.00,0.00,VWS V14.00,2013-03-26 10:49:00,
2013-03-26 06:54:00,31.7,24.7,29.67,NNE,28,6.0,15.0,75,0.00,,,0.00,0.00,VWS V14.00,2013-03-26 10:54:00,
2013-03-26 06:59:00,31.7,24.7,29.67,North,360,7.0,9.0,75,0.00,,,0.00,5.00,VWS V14.00,2013-03-26 10:59:00,
2013-03-26 07:04:00,31.7,24.7,29.67,NW,323,6.0,16.0,75,0.00,,,0.00,9.00,VWS V14.00,2013-03-26 11:04:00,
2013-03-26 07:09:00,31.7,24.7,29.67,North,351,6.0,11.0,75,0.00,,,0.00,12.00,VWS V14.00,2013-03-26 11:09:00,
2013-03-26 07:14:00,31.7,24.7,29.67,NNW,328,11.0,13.0,75,0.00,,,0.00,18.00,VWS V14.00,2013-03-26 11:14:00,
2013-03-26 07:19:00,31.8,24.5,29.67,North,5,6.0,16.0,74,0.00,,,0.00,23.00,VWS V14.00,2013-03-26 11:19:00,
2013-03-26 07:24:00,31.8,24.5,29.67,NE,34,7.0,14.0,74,0.00,,,0.00,26.00,VWS V14.00,2013-03-26 11:24:00,
2013-03-26 07:29:00,31.9,24.6,29.67,North,9,7.0,12.0,74,0.00,,,0.00,32.00,VWS V14.00,2013-03-26 11:29:00,
2013-03-26 07:34:00,31.9,24.6,29.67,NNW,331,7.0,15.0,74,0.00,,,0.00,37.00,VWS V14.00,2013-03-26 11:34:00,
2013-03-26 07:39:00,31.9,24.9,29.68,NNW,334,4.0,10.0,75,0.00,,,0.00,49.00,VWS V14.00,2013-03-26 11:39:00,
2013-03-26 07:44:00,32.0,24.7,29.68,NNW,336,10.0,14.0,74,0.00,,,0.00,56.00,VWS V14.00,2013-03-26 11:44:00,
2013-03-26 07:49:00,32.1,24.8,29.68,NNW,333,5.0,13.0,74,0.00,,,0.00,67.00,VWS V14.00,2013-03-26 11:49:00,
2013-03-26 07:54:00,32.1,24.8,29.68,NNW,330,3.0,13.0,74,0.00,,,0.00,83.00,VWS V14.00,2013-03-26 11:54:00,
2013-03-26 07:59:00,32.2,24.9,29.68,NNW,331,8.0,14.0,74,0.00,,,0.00,90.00,VWS V14.00,2013-03-26 11:59:00,
2013-03-26 08:04:00,32.3,25.0,29.68,NNW,345,6.0,10.0,74,0.00,,,0.00,100.00,VWS V14.00,2013-03-26 12:04:00,
2013-03-26 08:09:00,32.5,25.1,29.68,NNE,14,5.0,7.0,74,0.00,,,0.00,109.00,VWS V14.00,2013-03-26 12:09:00,
2013-03-26 08:15:00,32.6,25.2,29.68,North,360,4.0,10.0,74,0.00,,,0.00,105.00,VWS V14.00,2013-03-26 12:15:00,
2013-03-26 08:20:00,32.7,25.0,29.68,North,11,6.0,10.0,73,0.00,,,0.00,121.00,VWS V14.00,2013-03-26 12:20:00,
2013-03-26 08:25:00,32.8,25.1,29.69,NNE,26,4.0,7.0,73,0.00,,,0.00,127.00,VWS V14.00,2013-03-26 12:25:00,
2013-03-26 08:30:00,32.8,25.1,29.69,NE,53,7.0,9.0,73,0.00,,,0.00,148.00,VWS V14.00,2013-03-26 12:30:00,
2013-03-26 08:35:00,32.9,25.2,29.69,North,9,6.0,9.0,73,0.00,,,0.00,169.00,VWS V14.00,2013-03-26 12:35:00,
2013-03-26 08:40:00,33.0,25.3,29.70,North,5,5.0,11.0,73,0.00,,,0.00,142.00,VWS V14.00,2013-03-26 12:40:00,
2013-03-26 08:45:00,33.2,25.2,29.69,North,9,11.0,12.0,72,0.00,,,0.00,88.00,VWS V14.00,2013-03-26 12:45:00,
2013-03-26 08:50:00,33.1,25.1,29.70,NNE,29,1.0,12.0,72,0.00,,,0.00,221.00,VWS V14.00,2013-03-26 12:50:00,
2013-03-26 08:55:00,33.4,25.4,29.70,NNE,32,4.0,9.0,72,0.00,,,0.00,355.00,VWS V14.00,2013-03-26 12:55:00,
2013-03-26 09:00:00,33.8,25.7,29.70,NE,48,5.0,9.0,72,0.00,,,0.00,369.00,VWS V14.00,2013-03-26 13:00:00,
2013-03-26 09:05:00,34.4,26.0,29.70,North,5,3.0,14.0,71,0.00,,,0.00,385.00,VWS V14.00,2013-03-26 13:05:00,
2013-03-26 09:10:00,35.0,26.2,29.70,NNE,29,6.0,11.0,70,0.00,,,0.00,401.00,VWS V14.00,2013-03-26 13:10:00,
2013-03-26 09:15:00,35.6,26.5,29.69,NNE,19,8.0,11.0,69,0.00,,,0.00,415.00,VWS V14.00,2013-03-26 13:15:00,
2013-03-26 09:20:00,36.1,26.2,29.69,North,5,13.0,13.0,67,0.00,,,0.00,431.00,VWS V14.00,2013-03-26 13:20:00,
2013-03-26 09:25:00,36.5,26.2,29.69,ENE,73,5.0,13.0,66,0.00,,,0.00,445.00,VWS V14.00,2013-03-26 13:25:00,
2013-03-26 09:30:00,36.6,25.6,29.70,ENE,59,7.0,12.0,64,0.00,,,0.00,459.00,VWS V14.00,2013-03-26 13:30:00,
2013-03-26 09:35:00,36.5,25.5,29.70,NNE,30,7.0,15.0,64,0.00,,,0.00,480.00,VWS V14.00,2013-03-26 13:35:00,
2013-03-26 09:40:00,36.4,25.4,29.70,NW,323,8.0,16.0,64,0.00,,,0.00,497.00,VWS V14.00,2013-03-26 13:40:00,
2013-03-26 09:45:00,36.5,25.5,29.70,ENE,57,7.0,12.0,64,0.00,,,0.00,547.00,VWS V14.00,2013-03-26 13:45:00,
2013-03-26 09:50:00,36.6,24.8,29.70,NNE,30,8.0,15.0,62,0.00,,,0.00,548.00,VWS V14.00,2013-03-26 13:50:00,
2013-03-26 09:55:00,36.7,24.9,29.70,NNE,28,3.0,18.0,62,0.00,,,0.00,543.00,VWS V14.00,2013-03-26 13:55:00,
2013-03-26 10:00:00,37.1,24.9,29.69,NNE,28,7.0,12.0,61,0.00,,,0.00,577.00,VWS V14.00,2013-03-26 14:00:00,
2013-03-26 10:06:00,37.3,24.7,29.70,NE,53,7.0,15.0,60,0.00,,,0.00,580.00,VWS V14.00,2013-03-26 14:06:00,
2013-03-26 10:11:00,37.4,24.8,29.70,NE,56,5.0,10.0,60,0.00,,,0.00,606.00,VWS V14.00,2013-03-26 14:11:00,
2013-03-26 10:16:00,37.7,25.1,29.70,NE,40,4.0,9.0,60,0.00,,,0.00,654.00,VWS V14.00,2013-03-26 14:16:00,
2013-03-26 10:21:00,37.8,25.2,29.70,East,86,7.0,11.0,60,0.00,,,0.00,751.00,VWS V14.00,2013-03-26 14:21:00,
2013-03-26 10:26:00,37.8,24.8,29.70,ENE,65,12.0,13.0,59,0.00,,,0.00,406.00,VWS V14.00,2013-03-26 14:26:00,
2013-03-26 10:31:00,37.8,24.8,29.71,NE,40,8.0,21.0,59,0.00,,,0.00,264.00,VWS V14.00,2013-03-26 14:31:00,
2013-03-26 10:36:00,37.5,24.9,29.71,ENE,61,7.0,14.0,60,0.00,,,0.00,257.00,VWS V14.00,2013-03-26 14:36:00,
2013-03-26 10:41:00,37.3,25.1,29.71,NE,40,7.0,10.0,61,0.00,,,0.00,345.00,VWS V14.00,2013-03-26 14:41:00,
2013-03-26 10:45:00,37.3,25.5,29.71,ENE,68,4.0,13.0,62,0.00,,,0.00,366.00,VWS V14.00,2013-03-26 14:45:00,
2013-03-26 10:51:00,37.3,25.1,29.72,NE,40,6.0,16.0,61,0.00,,,0.00,288.00,VWS V14.00,2013-03-26 14:51:00,
2013-03-26 10:56:00,37.0,24.8,29.72,ENE,60,10.0,16.0,61,0.00,,,0.00,267.00,VWS V14.00,2013-03-26 14:56:00,
2013-03-26 11:01:00,37.0,25.6,29.72,NE,42,5.0,10.0,63,0.00,,,0.00,979.00,VWS V14.00,2013-03-26 15:01:00,
2013-03-26 11:06:00,37.6,25.8,29.72,NE,51,4.0,14.0,62,0.00,,,0.00,278.00,VWS V14.00,2013-03-26 15:06:00,
2013-03-26 11:11:00,37.7,25.5,29.72,NNE,26,6.0,19.0,61,0.00,,,0.00,209.00,VWS V14.00,2013-03-26 15:11:00,
2013-03-26 11:16:00,37.7,25.1,29.72,NNE,22,10.0,15.0,60,0.00,,,0.00,258.00,VWS V14.00,2013-03-26 15:16:00,
2013-03-26 11:21:00,37.6,25.0,29.72,NE,42,6.0,12.0,60,0.00,,,0.00,232.00,VWS V14.00,2013-03-26 15:21:00,
2013-03-26 11:26:00,37.7,25.5,29.72,East,81,3.0,7.0,61,0.00,,,0.00,844.00,VWS V14.00,2013-03-26 15:26:00,
2013-03-26 11:31:00,38.3,25.6,29.72,NE,49,5.0,16.0,60,0.00,,,0.00,867.00,VWS V14.00,2013-03-26 15:31:00,
2013-03-26 11:36:00,38.9,25.8,29.72,ENE,74,11.0,13.0,59,0.00,,,0.00,1009.00,VWS V14.00,2013-03-26 15:36:00,
2013-03-26 11:41:00,39.6,26.5,29.72,East,80,8.0,11.0,59,0.00,,,0.00,1111.00,VWS V14.00,2013-03-26 15:41:00,
2013-03-26 11:46:00,39.6,25.6,29.72,NE,51,7.0,12.0,57,0.00,,,0.00,366.00,VWS V14.00,2013-03-26 15:46:00,
2013-03-26 11:51:00,39.3,24.9,29.72,East,90,10.0,15.0,56,0.00,,,0.00,278.00,VWS V14.00,2013-03-26 15:51:00,
2013-03-26 11:56:00,38.8,24.5,29.73,NE,39,11.0,16.0,56,0.00,,,0.00,278.00,VWS V14.00,2013-03-26 15:56:00,
2013-03-26 12:01:00,38.7,25.6,29.73,NE,52,3.0,11.0,59,0.00,,,0.00,399.00,VWS V14.00,2013-03-26 16:01:00,
2013-03-26 12:06:00,39.0,25.5,29.73,North,11,10.0,10.0,58,0.00,,,0.00,399.00,VWS V14.00,2013-03-26 16:06:00,
2013-03-26 12:11:00,39.1,24.7,29.73,ENE,76,7.0,16.0,56,0.00,,,0.00,185.00,VWS V14.00,2013-03-26 16:11:00,
2013-03-26 12:16:00,38.6,23.8,29.73,ENE,59,12.0,17.0,55,0.00,,,0.00,155.00,VWS V14.00,2013-03-26 16:16:00,
2013-03-26 12:20:00,38.0,23.7,29.73,NE,42,8.0,14.0,56,0.00,,,0.00,225.00,VWS V14.00,2013-03-26 16:20:00,
2013-03-26 12:25:00,37.9,24.0,29.73,NE,46,3.0,8.0,57,0.00,,,0.00,294.00,VWS V14.00,2013-03-26 16:25:00,
2013-03-26 12:31:00,38.0,24.5,29.73,ENE,73,4.0,9.0,58,0.00,,,0.00,315.00,VWS V14.00,2013-03-26 16:31:00,
2013-03-26 12:36:00,38.3,24.0,29.73,NNE,22,4.0,15.0,56,0.00,,,0.00,380.00,VWS V14.00,2013-03-26 16:36:00,
2013-03-26 12:41:00,38.6,24.7,29.73,NNE,28,6.0,10.0,57,0.00,,,0.00,383.00,VWS V14.00,2013-03-26 16:41:00,
2013-03-26 12:46:00,38.6,24.7,29.73,North,11,4.0,8.0,57,0.00,,,0.00,471.00,VWS V14.00,2013-03-26 16:46:00,
2013-03-26 12:50:00,38.9,24.6,29.74,NNE,32,0.0,11.0,56,0.00,,,0.00,302.00,VWS V14.00,2013-03-26 16:50:00,
2013-03-26 12:55:00,39.1,24.7,29.73,NE,44,5.0,10.0,56,0.00,,,0.00,262.00,VWS V14.00,2013-03-26 16:55:00,
2013-03-26 13:00:00,39.2,25.3,29.73,East,97,3.0,10.0,57,0.00,,,0.00,722.00,VWS V14.00,2013-03-26 17:00:00,
2013-03-26 13:06:00,40.1,25.2,29.73,ENE,57,7.0,14.0,55,0.00,,,0.00,1000.00,VWS V14.00,2013-03-26 17:06:00,
2013-03-26 13:11:00,40.5,24.7,29.73,ESE,114,5.0,9.0,53,0.00,,,0.00,272.00,VWS V14.00,2013-03-26 17:11:00,
2013-03-26 13:16:00,40.4,25.1,29.74,ENE,67,14.0,14.0,54,0.00,,,0.00,279.00,VWS V14.00,2013-03-26 17:16:00,
2013-03-26 13:21:00,39.9,25.5,29.74,NNE,18,2.0,14.0,56,0.00,,,0.00,257.00,VWS V14.00,2013-03-26 17:21:00,
2013-03-26 13:26:00,39.5,26.0,29.74,NW,325,11.0,13.0,58,0.00,,,0.00,302.00,VWS V14.00,2013-03-26 17:26:00,
2013-03-26 13:31:00,39.4,25.9,29.74,NW,323,8.0,14.0,58,0.00,,,0.00,494.00,VWS V14.00,2013-03-26 17:31:00,
2013-03-26 13:36:00,39.8,26.2,29.74,NW,321,8.0,9.0,58,0.00,,,0.00,944.00,VWS V14.00,2013-03-26 17:36:00,
2013-03-26 13:41:00,41.1,26.2,29.74,NNW,344,5.0,9.0,55,0.00,,,0.00,849.00,VWS V14.00,2013-03-26 17:41:00,
2013-03-26 13:46:00,41.5,26.1,29.74,North,11,4.0,8.0,54,0.00,,,0.00,234.00,VWS V14.00,2013-03-26 17:46:00,
2013-03-26 13:50:00,41.3,25.5,29.74,NW,323,5.0,9.0,53,0.00,,,0.00,258.00,VWS V14.00,2013-03-26 17:50:00,
2013-03-26 13:55:00,41.8,25.9,29.74,NNW,329,2.0,7.0,53,0.00,,,0.00,290.00,VWS V14.00,2013-03-26 17:55:00,
2013-03-26 14:01:00,42.2,25.4,29.74,ENE,64,4.0,10.0,51,0.00,,,0.00,1048.00,VWS V14.00,2013-03-26 18:01:00,
2013-03-26 14:06:00,42.4,24.6,29.73,NNE,19,4.0,7.0,49,0.00,,,0.00,914.00,VWS V14.00,2013-03-26 18:06:00,
2013-03-26 14:11:00,42.1,23.3,29.73,ENE,61,5.0,8.0,47,0.00,,,0.00,218.00,VWS V14.00,2013-03-26 18:11:00,
2013-03-26 14:16:00,41.3,23.1,29.73,NE,48,4.0,11.0,48,0.00,,,0.00,234.00,VWS V14.00,2013-03-26 18:16:00,
2013-03-26 14:21:00,41.2,24.0,29.73,East,87,2.0,6.0,50,0.00,,,0.00,390.00,VWS V14.00,2013-03-26 18:21:00,
2013-03-26 14:26:00,41.2,24.5,29.73,East,92,1.0,5.0,51,0.00,,,0.00,257.00,VWS V14.00,2013-03-26 18:26:00,
2013-03-26 14:31:00,40.9,25.5,29.73,NE,53,5.0,11.0,54,0.00,,,0.00,207.00,VWS V14.00,2013-03-26 18:31:00,
2013-03-26 14:36:00,40.4,23.7,29.73,NE,51,4.0,11.0,51,0.00,,,0.00,290.00,VWS V14.00,2013-03-26 18:36:00,
2013-03-26 14:41:00,40.8,24.5,29.73,ENE,76,0.0,8.0,52,0.00,,,0.00,1018.00,VWS V14.00,2013-03-26 18:41:00,
2013-03-26 14:46:00,41.9,23.7,29.73,NNW,339,7.0,9.0,48,0.00,,,0.00,221.00,VWS V14.00,2013-03-26 18:46:00,
2013-03-26 14:51:00,41.8,24.1,29.73,NNE,25,2.0,10.0,49,0.00,,,0.00,190.00,VWS V14.00,2013-03-26 18:51:00,
2013-03-26 14:56:00,42.5,24.2,29.73,NW,312,7.0,9.0,48,0.00,,,0.00,911.00,VWS V14.00,2013-03-26 18:56:00,
2013-03-26 15:01:00,43.7,24.3,29.73,ENE,76,4.0,11.0,46,0.00,,,0.00,835.00,VWS V14.00,2013-03-26 19:01:00,
2013-03-26 15:06:00,44.7,25.7,29.73,South,181,0.0,5.0,47,0.00,,,0.00,914.00,VWS V14.00,2013-03-26 19:06:00,
2013-03-26 15:11:00,45.3,25.8,29.73,ESE,118,2.0,8.0,46,0.00,,,0.00,1021.00,VWS V14.00,2013-03-26 19:11:00,
2013-03-26 15:16:00,45.0,25.5,29.73,SSE,166,1.0,6.0,46,0.00,,,0.00,376.00,VWS V14.00,2013-03-26 19:16:00,
2013-03-26 15:21:00,44.0,25.6,29.73,SSE,152,0.0,8.0,48,0.00,,,0.00,355.00,VWS V14.00,2013-03-26 19:21:00,
2013-03-26 15:26:00,43.4,26.5,29.73,East,96,5.0,7.0,51,0.00,,,0.00,267.00,VWS V14.00,2013-03-26 19:26:00,
2013-03-26 15:31:00,42.9,25.1,29.73,ESE,107,2.0,8.0,49,0.00,,,0.00,241.00,VWS V14.00,2013-03-26 19:31:00,
2013-03-26 15:36:00,42.2,24.9,29.72,ENE,67,2.0,4.0,50,0.00,,,0.00,214.00,VWS V14.00,2013-03-26 19:36:00,
2013-03-26 15:41:00,41.6,24.8,29.73,East,98,7.0,7.0,51,0.00,,,0.00,248.00,VWS V14.00,2013-03-26 19:41:00,
2013-03-26 15:46:00,41.4,25.6,29.73,East,81,2.0,5.0,53,0.00,,,0.00,816.00,VWS V14.00,2013-03-26 19:46:00,
2013-03-26 15:51:00,41.9,25.6,29.73,East,89,7.0,8.0,52,0.00,,,0.00,751.00,VWS V14.00,2013-03-26 19:51:00,
2013-03-26 15:56:00,41.7,24.9,29.72,SSW,211,2.0,2.0,51,0.00,,,0.00,264.00,VWS V14.00,2013-03-26 19:56:00,
2013-03-26 16:01:00,41.2,25.4,29.72,ESE,115,4.0,7.0,53,0.00,,,0.00,670.00,VWS V14.00,2013-03-26 20:01:00,
2013-03-26 16:06:00,41.0,25.6,29.73,SSE,151,1.0,2.0,54,0.00,,,0.00,682.00,VWS V14.00,2013-03-26 20:06:00,
2013-03-26 16:11:00,40.6,24.8,29.72,East,85,2.0,6.0,53,0.00,,,0.00,113.00,VWS V14.00,2013-03-26 20:11:00,
2013-03-26 16:17:00,40.2,24.5,29.72,East,86,0.0,6.0,53,0.00,,,0.00,90.00,VWS V14.00,2013-03-26 20:17:00,
2013-03-26 16:22:00,39.8,24.1,29.73,SE,143,4.0,9.0,53,0.00,,,0.00,111.00,VWS V14.00,2013-03-26 20:22:00,
2013-03-26 16:27:00,39.8,24.1,29.73,ENE,64,3.0,7.0,53,0.00,,,0.00,113.00,VWS V14.00,2013-03-26 20:27:00,
2013-03-26 16:32:00,39.9,24.6,29.73,ESE,107,3.0,8.0,54,0.00,,,0.00,499.00,VWS V14.00,2013-03-26 20:32:00,
2013-03-26 16:37:00,40.2,24.5,29.73,ENE,65,3.0,7.0,53,0.00,,,0.00,392.00,VWS V14.00,2013-03-26 20:37:00,
2013-03-26 16:42:00,40.3,24.1,29.73,ENE,58,4.0,11.0,52,0.00,,,0.00,306.00,VWS V14.00,2013-03-26 20:42:00,
2013-03-26 16:47:00,40.4,24.6,29.73,East,95,1.0,6.0,53,0.00,,,0.00,244.00,VWS V14.00,2013-03-26 20:47:00,
2013-03-26 16:52:00,40.5,24.7,29.73,ESE,120,2.0,5.0,53,0.00,,,0.00,132.00,VWS V14.00,2013-03-26 20:52:00,
2013-03-26 16:57:00,40.4,24.6,29.73,ENE,58,5.0,8.0,53,0.00,,,0.00,83.00,VWS V14.00,2013-03-26 20:57:00,
2013-03-26 17:02:00,40.2,24.9,29.73,ENE,71,7.0,9.0,54,0.00,,,0.00,141.00,VWS V14.00,2013-03-26 21:02:00,
2013-03-26 17:07:00,40.2,25.3,29.73,NE,52,2.0,3.0,55,0.00,,,0.00,100.00,VWS V14.00,2013-03-26 21:07:00,
2013-03-26 17:12:00,40.2,25.3,29.73,East,80,1.0,3.0,55,0.00,,,0.00,118.00,VWS V14.00,2013-03-26 21:12:00,
2013-03-26 17:17:00,40.2,24.9,29.73,ESE,113,5.0,9.0,54,0.00,,,0.00,100.00,VWS V14.00,2013-03-26 21:17:00,
2013-03-26 17:22:00,40.2,25.3,29.73,ESE,106,3.0,9.0,55,0.00,,,0.00,102.00,VWS V14.00,2013-03-26 21:22:00,
2013-03-26 17:27:00,40.1,24.8,29.74,NE,53,2.0,9.0,54,0.00,,,0.00,128.00,VWS V14.00,2013-03-26 21:27:00,
2013-03-26 17:32:00,40.0,25.6,29.74,ESE,114,1.0,3.0,56,0.00,,,0.00,118.00,VWS V14.00,2013-03-26 21:32:00,
2013-03-26 17:37:00,39.9,25.1,29.74,ESE,117,3.0,3.0,55,0.00,,,0.00,90.00,VWS V14.00,2013-03-26 21:37:00,
2013-03-26 17:42:00,39.8,25.0,29.74,East,97,3.0,6.0,55,0.00,,,0.00,135.00,VWS V14.00,2013-03-26 21:42:00,
2013-03-26 17:48:00,39.7,25.3,29.74,ESE,111,3.0,7.0,56,0.00,,,0.00,144.00,VWS V14.00,2013-03-26 21:48:00,
2013-03-26 17:53:00,39.7,25.3,29.74,NE,53,4.0,6.0,56,0.00,,,0.00,174.00,VWS V14.00,2013-03-26 21:53:00,
2013-03-26 17:58:00,39.7,25.3,29.74,East,91,3.0,4.0,56,0.00,,,0.00,200.00,VWS V14.00,2013-03-26 21:58:00,
2013-03-26 18:03:00,39.7,25.3,29.74,ESE,113,1.0,3.0,56,0.00,,,0.00,32.00,VWS V14.00,2013-03-26 22:03:00,
2013-03-26 18:08:00,39.5,25.1,29.75,ENE,73,1.0,5.0,56,0.00,,,0.00,146.00,VWS V14.00,2013-03-26 22:08:00,
2013-03-26 18:13:00,39.3,24.9,29.75,East,94,2.0,5.0,56,0.00,,,0.00,141.00,VWS V14.00,2013-03-26 22:13:00,
2013-03-26 18:18:00,39.2,25.3,29.75,East,90,2.0,3.0,57,0.00,,,0.00,111.00,VWS V14.00,2013-03-26 22:18:00,
2013-03-26 18:23:00,39.1,25.2,29.75,ESE,102,0.0,1.0,57,0.00,,,0.00,109.00,VWS V14.00,2013-03-26 22:23:00,
2013-03-26 18:28:00,39.1,25.2,29.75,East,84,1.0,2.0,57,0.00,,,0.00,26.00,VWS V14.00,2013-03-26 22:28:00,
2013-03-26 18:33:00,38.9,25.0,29.75,ENE,67,0.0,3.0,57,0.00,,,0.00,25.00,VWS V14.00,2013-03-26 22:33:00,
2013-03-26 18:38:00,38.8,24.9,29.76,ENE,76,0.0,1.0,57,0.00,,,0.00,23.00,VWS V14.00,2013-03-26 22:38:00,
2013-03-26 18:43:00,38.8,24.9,29.76,ENE,76,0.0,1.0,57,0.00,,,0.00,19.00,VWS V14.00,2013-03-26 22:43:00,
2013-03-26 18:48:00,38.7,24.8,29.75,ENE,76,0.0,0.0,57,0.00,,,0.00,18.00,VWS V14.00,2013-03-26 22:48:00,
2013-03-26 18:53:00,38.6,25.1,29.75,ENE,76,0.0,0.0,58,0.00,,,0.00,16.00,VWS V14.00,2013-03-26 22:53:00,
2013-03-26 18:58:00,38.4,24.9,29.75,ENE,76,0.0,0.0,58,0.00,,,0.00,12.00,VWS V14.00,2013-03-26 22:58:00,
2013-03-26 19:03:00,38.2,25.1,29.76,ENE,76,0.0,0.0,59,0.00,,,0.00,11.00,VWS V14.00,2013-03-26 23:03:00,
2013-03-26 19:08:00,38.0,25.0,29.75,ENE,76,0.0,0.0,59,0.00,,,0.00,7.00,VWS V14.00,2013-03-26 23:08:00,
2013-03-26 19:13:00,37.7,24.7,29.76,ENE,76,0.0,0.0,59,0.00,,,0.00,5.00,VWS V14.00,2013-03-26 23:13:00,
2013-03-26 19:18:00,37.2,24.6,29.76,ENE,76,0.0,1.0,60,0.00,,,0.00,0.00,VWS V14.00,2013-03-26 23:18:00,
2013-03-26 19:23:00,36.8,24.2,29.76,ENE,76,0.0,0.0,60,0.00,,,0.00,0.00,VWS V14.00,2013-03-26 23:23:00,
2013-03-26 19:28:00,36.2,24.1,29.76,ENE,76,0.0,1.0,61,0.00,,,0.00,0.00,VWS V14.00,2013-03-26 23:28:00,
2013-03-26 19:33:00,35.8,24.1,29.76,ENE,76,0.0,1.0,62,0.00,,,0.00,0.00,VWS V14.00,2013-03-26 23:33:00,
2013-03-26 19:38:00,35.4,23.7,29.76,ENE,76,0.0,0.0,62,0.00,,,0.00,0.00,VWS V14.00,2013-03-26 23:38:00,
2013-03-26 19:43:00,34.9,23.6,29.77,ENE,76,0.0,0.0,63,0.00,,,0.00,0.00,VWS V14.00,2013-03-26 23:43:00,
2013-03-26 19:48:00,34.4,23.5,29.77,ENE,76,0.0,1.0,64,0.00,,,0.00,0.00,VWS V14.00,2013-03-26 23:48:00,
2013-03-26 19:53:00,33.9,23.4,29.77,ENE,76,0.0,0.0,65,0.00,,,0.00,0.00,VWS V14.00,2013-03-26 23:53:00,
2013-03-26 19:58:00,33.4,23.6,29.77,ENE,76,0.0,0.0,67,0.00,,,0.00,0.00,VWS V14.00,2013-03-26 23:58:00,
2013-03-26 20:03:00,33.0,23.6,29.77,ENE,76,0.0,1.0,68,0.00,,,0.00,0.00,VWS V14.00,2013-03-27 00:03:00,
2013-03-26 20:08:00,32.6,23.2,29.77,ENE,76,2.0,3.0,68,0.00,,,0.00,0.00,VWS V14.00,2013-03-27 00:08:00,
2013-03-26 20:13:00,32.0,23.0,29.77,ENE,76,3.0,3.0,69,0.00,,,0.00,0.00,VWS V14.00,2013-03-27 00:13:00,
2013-03-26 20:18:00,31.6,23.0,29.77,ENE,76,2.0,3.0,70,0.00,,,0.00,0.00,VWS V14.00,2013-03-27 00:18:00,
2013-03-26 20:23:00,31.3,22.7,29.77,ENE,76,3.0,3.0,70,0.00,,,0.00,0.00,VWS V14.00,2013-03-27 00:23:00,
2013-03-26 20:28:00,31.0,22.7,29.77,ENE,76,1.0,2.0,71,0.00,,,0.00,0.00,VWS V14.00,2013-03-27 00:28:00,
2013-03-26 20:33:00,30.7,22.8,29.78,ENE,76,3.0,3.0,72,0.00,,,0.00,0.00,VWS V14.00,2013-03-27 00:33:00,
2013-03-26 20:38:00,30.4,22.8,29.78,North,360,3.0,4.0,73,0.00,,,0.00,0.00,VWS V14.00,2013-03-27 00:38:00,
2013-03-26 20:43:00,30.2,22.9,29.78,North,360,3.0,4.0,74,0.00,,,0.00,0.00,VWS V14.00,2013-03-27 00:43:00,
2013-03-26 20:48:00,29.9,22.6,29.78,North,360,2.0,3.0,74,0.00,,,0.00,0.00,VWS V14.00,2013-03-27 00:48:00,
2013-03-26 20:53:00,29.8,22.9,29.78,North,355,3.0,4.0,75,0.00,,,0.00,0.00,VWS V14.00,2013-03-27 00:53:00,
2013-03-26 20:58:00,29.7,23.1,29.78,North,355,3.0,4.0,76,0.00,,,0.00,0.00,VWS V14.00,2013-03-27 00:58:00,
2013-03-26 21:04:00,29.5,22.9,29.78,North,355,3.0,4.0,76,0.00,,,0.00,0.00,VWS V14.00,2013-03-27 01:04:00,
2013-03-26 21:09:00,29.4,23.1,29.78,North,355,4.0,4.0,77,0.00,,,0.00,0.00,VWS V14.00,2013-03-27 01:09:00,
2013-03-26 21:14:00,29.2,22.9,29.78,North,355,3.0,4.0,77,0.00,,,0.00,0.00,VWS V14.00,2013-03-27 01:14:00,
2013-03-26 21:19:00,29.1,23.1,29.78,North,355,1.0,3.0,78,0.00,,,0.00,0.00,VWS V14.00,2013-03-27 01:19:00,
2013-03-26 21:24:00,28.9,22.9,29.78,North,355,1.0,4.0,78,0.00,,,0.00,0.00,VWS V14.00,2013-03-27 01:24:00,
2013-03-26 21:29:00,28.7,23.0,29.79,North,355,3.0,4.0,79,0.00,,,0.00,0.00,VWS V14.00,2013-03-27 01:29:00,
2013-03-26 21:34:00,28.6,22.9,29.78,North,355,3.0,3.0,79,0.00,,,0.00,0.00,VWS V14.00,2013-03-27 01:34:00,
2013-03-26 21:39:00,28.4,22.7,29.79,North,355,0.0,3.0,79,0.00,,,0.00,0.00,VWS V14.00,2013-03-27 01:39:00,
2013-03-26 21:44:00,28.3,22.9,29.78,North,355,0.0,3.0,80,0.00,,,0.00,0.00,VWS V14.00,2013-03-27 01:44:00,
2013-03-26 21:49:00,28.2,22.8,29.79,North,355,2.0,3.0,80,0.00,,,0.00,0.00,VWS V14.00,2013-03-27 01:49:00,
2013-03-26 21:54:00,28.1,22.7,29.79,North,355,0.0,4.0,80,0.00,,,0.00,0.00,VWS V14.00,2013-03-27 01:54:00,
2013-03-26 21:59:00,28.0,22.6,29.79,North,355,3.0,4.0,80,0.00,,,0.00,0.00,VWS V14.00,2013-03-27 01:59:00,
2013-03-26 22:04:00,27.8,22.4,29.79,North,355,1.0,2.0,80,0.00,,,0.00,0.00,VWS V14.00,2013-03-27 02:04:00,
2013-03-26 22:09:00,27.7,22.6,29.79,North,355,1.0,1.0,81,0.00,,,0.00,0.00,VWS V14.00,2013-03-27 02:09:00,
2013-03-26 22:14:00,27.6,22.5,29.78,NW,308,0.0,1.0,81,0.00,,,0.00,0.00,VWS V14.00,2013-03-27 02:14:00,
2013-03-26 22:19:00,27.6,22.5,29.78,NW,308,0.0,0.0,81,0.00,,,0.00,0.00,VWS V14.00,2013-03-27 02:19:00,
2013-03-26 22:24:00,27.7,22.6,29.78,NW,309,0.0,4.0,81,0.00,,,0.00,0.00,VWS V14.00,2013-03-27 02:24:00,
2013-03-26 22:29:00,28.1,23.0,29.78,NW,316,2.0,5.0,81,0.00,,,0.00,0.00,VWS V14.00,2013-03-27 02:29:00,
2013-03-26 22:34:00,28.8,23.4,29.78,NW,316,1.0,6.0,80,0.00,,,0.00,0.00,VWS V14.00,2013-03-27 02:34:00,
2013-03-26 22:39:00,29.4,23.7,29.78,NW,313,2.0,5.0,79,0.00,,,0.00,0.00,VWS V14.00,2013-03-27 02:39:00,
2013-03-26 22:44:00,29.9,23.6,29.78,NW,313,5.0,5.0,77,0.00,,,0.00,0.00,VWS V14.00,2013-03-27 02:44:00,
2013-03-26 22:49:00,30.3,23.7,29.78,NW,313,3.0,5.0,76,0.00,,,0.00,0.00,VWS V14.00,2013-03-27 02:49:00,
2013-03-26 22:54:00,30.5,23.5,29.78,NW,313,1.0,4.0,75,0.00,,,0.00,0.00,VWS V14.00,2013-03-27 02:54:00,
2013-03-26 22:59:00,30.7,23.4,29.78,NW,314,3.0,5.0,74,0.00,,,0.00,0.00,VWS V14.00,2013-03-27 02:59:00,
2013-03-26 23:04:00,30.8,23.2,29.78,NW,314,0.0,6.0,73,0.00,,,0.00,0.00,VWS V14.00,2013-03-27 03:04:00,
2013-03-26 23:09:00,30.9,23.3,29.78,NW,314,3.0,4.0,73,0.00,,,0.00,0.00,VWS V14.00,2013-03-27 03:09:00,
2013-03-26 23:14:00,31.2,23.2,29.78,NW,324,4.0,6.0,72,0.00,,,0.00,0.00,VWS V14.00,2013-03-27 03:14:00,
2013-03-26 23:19:00,31.5,23.2,29.78,NW,316,7.0,8.0,71,0.00,,,0.00,0.00,VWS V14.00,2013-03-27 03:19:00,
2013-03-26 23:24:00,32.1,23.4,29.78,NW,317,0.0,4.0,70,0.00,,,0.00,0.00,VWS V14.00,2013-03-27 03:24:00,
2013-03-26 23:29:00,32.8,23.4,29.78,NW,311,0.0,5.0,68,0.00,,,0.00,0.00,VWS V14.00,2013-03-27 03:29:00,
2013-03-26 23:34:00,33.5,23.7,29.78,NW,311,2.0,3.0,67,0.00,,,0.00,0.00,VWS V14.00,2013-03-27 03:34:00,
2013-03-26 23:39:00,33.9,23.4,29.78,NW,319,2.0,5.0,65,0.00,,,0.00,0.00,VWS V14.00,2013-03-27 03:39:00,
2013-03-26 23:44:00,34.1,23.6,29.78,NW,319,3.0,5.0,65,0.00,,,0.00,0.00,VWS V14.00,2013-03-27 03:44:00,
2013-03-26 23:49:00,34.2,23.7,29.78,NW,319,2.0,4.0,65,0.00,,,0.00,0.00,VWS V14.00,2013-03-27 03:49:00,
2013-03-26 23:54:00,34.3,23.4,29.78,NW,319,4.0,7.0,64,0.00,,,0.00,0.00,VWS V14.00,2013-03-27 03:54:00,
2013-03-26 23:59:00,34.5,23.2,29.77,NW,321,5.0,8.0,63,0.00,,,0.00,0.00,VWS V14.00,2013-03-27 03:59:00,